Lapse_Rate
7.2 6.5 6.5 6.5 6.5 6.5 6.5 6.5 6.5 6.5 6.5 6.5 6.5 6.5 6.5 7.2 7.4 7.3 7.5 7.8 8.0 8.2 8.8 9.0 9.2 9.3 9.4 9.5 9.5 9.6 9.5 9.4 9.6 9.6 9.5 9.4 9.4 9.4 8.8 7.9 7.7 7.2 7.9 7.0
6.5 6.5 6.5 6.5 6.5 6.5 6.5 6.5 6.5 6.5 6.5 6.5 6.5 6.5 6.5 6.7 7.0 7.4 7.5 7.7 7.9 8.2 8.6 8.8 9.0 9.2 9.2 9.3 9.3 9.5 9.6 9.6 9.7 9.9 9.8 9.8 9.7 9.7 9.2 7.1 6.8 6.9 6.7 7.2
6.5 6.5 6.6 6.5 6.5 6.5 6.5 6.5 6.5 6.5 6.5 6.5 6.5 6.5 6.5 6.6 7.2 7.5 7.7 8.0 8.1 8.2 8.4 8.6 8.8 9.0 9.1 9.1 9.2 9.5 9.6 9.7 9.7 9.8 10.0 9.8 9.5 7.7 7.2 6.3 6.1 6.1 6.1 6.9
6.5 6.6 6.5 6.5 6.5 6.5 6.5 6.5 6.5 6.5 6.5 6.5 6.5 6.5 6.5 6.5 6.5 6.5 7.4 7.7 7.9 8.2 8.6 8.7 8.8 8.9 9.0 9.2 9.4 9.5 9.6 9.7 9.7 9.7 9.7 9.0 9.2 9.0 7.8 5.5 6.0 7.0 5.5 6.1
6.5 6.5 6.5 6.5 6.5 6.5 6.5 6.5 6.5 6.5 6.5 6.5 6.5 6.5 6.5 6.5 6.5 6.5 7.0 7.6 7.9 8.3 8.5 8.6 8.8 9.0 9.2 9.3 9.3 9.4 9.6 9.7 9.7 9.6 9.2 9.4 9.2 9.5 9.6 6.4 7.8 6.1 5.0 4.8
6.5 7.1 6.6 6.5 6.5 6.5 6.5 6.5 6.5 6.5 6.5 6.5 6.5 6.5 6.5 6.5 6.5 6.5 6.8 7.5 7.9 8.2 8.4 8.6 8.8 9.1 9.1 9.3 9.1 9.2 9.3 9.5 9.6 9.5 7.7 8.5 9.1 9.2 8.4 7.4 5.3 4.9 3.6 3.7
6.5 6.5 6.5 6.8 6.5 6.5 6.5 6.5 6.5 6.5 6.5 6.5 6.5 6.5 6.5 6.5 6.5 6.5 6.6 7.2 7.8 8.1 8.2 8.4 8.6 8.9 8.9 9.0 9.1 9.2 9.1 9.1 9.2 9.2 7.7 7.3 7.7 7.9 5.7 5.3 4.0 3.9 5.0 3.7
6.5 6.5 6.5 6.5 6.5 6.5 6.5 6.5 6.5 6.5 6.5 6.5 6.5 6.5 6.5 6.5 6.9 7.3 7.5 7.7 7.8 8.0 8.3 8.5 8.6 8.8 8.9 8.9 9.1 9.0 8.5 8.9 9.3 8.3 6.6 6.9 6.5 5.8 5.2 4.8 3.2 3.9 3.8 2.5
6.5 6.5 6.5 6.5 6.5 6.5 6.5 6.5 6.5 6.5 6.5 6.5 6.5 6.5 6.5 6.5 6.5 6.8 7.0 7.3 7.5 7.9 8.2 8.4 8.7 8.8 8.9 9.0 9.0 8.9 8.9 8.4 9.1 8.7 8.2 7.4 5.8 5.0 4.9 3.7 3.1 3.8 3.4 4.4
6.5 6.5 6.5 6.5 6.7 6.6 6.5 6.5 6.5 6.5 6.5 6.5 6.5 6.5 6.5 6.5 6.5 6.5 6.5 6.9 7.4 7.8 8.0 8.2 8.5 8.7 9.0 9.1 9.3 9.2 9.3 8.3 8.9 9.4 8.8 8.6 7.1 6.0 3.0 3.5 2.8 2.0 3.6 5.0
6.5 6.5 6.5 6.5 6.5 6.5 6.5 6.5 6.5 6.5 6.5 6.5 6.5 6.5 6.5 6.5 6.5 6.5 6.6 7.1 7.5 7.7 7.9 8.1 8.2 8.6 8.9 9.1 9.2 9.2 9.1 8.0 8.9 9.4 9.2 8.8 8.0 5.4 3.5 2.1 2.8 3.8 5.6 5.3
6.5 6.5 6.5 6.5 6.5 6.5 6.5 6.5 6.5 6.5 6.5 6.5 6.5 6.5 6.5 6.5 6.5 6.8 6.9 7.3 7.7 7.9 8.0 8.1 8.3 8.4 8.4 8.7 9.0 9.1 9.2 9.3 9.3 9.4 9.3 8.9 5.5 4.7 4.6 4.8 5.1 5.1 5.3 2.7
6.5 6.5 6.5 6.5 6.5 6.5 6.5 6.5 6.5 6.5 6.5 6.5 6.5 6.5 6.5 6.6 6.6 7.0 7.1 7.4 7.7 7.8 8.0 8.2 8.2 8.3 7.6 7.0 7.8 8.4 7.6 8.6 8.8 6.8 5.8 6.2 6.1 4.9 4.6 4.1 4.2 3.3 2.1 1.2
6.1 6.5 6.5 6.5 6.5 6.5 6.5 6.5 6.5 6.5 6.5 6.5 6.5 6.5 6.5 6.5 6.5 6.7 7.1 7.4 7.7 7.8 7.8 8.1 8.2 8.4 8.6 8.4 7.2 7.0 6.7 6.6 6.3 6.2 6.3 6.5 5.8 6.2 6.3 5.4 4.5 4.6 3.9 3.0
6.5 6.5 6.5 6.5 6.5 6.5 6.5 6.5 6.5 6.5 6.5 6.5 6.5 6.5 6.5 6.5 6.5 6.8 7.3 7.4 7.5 7.6 7.8 8.1 8.2 8.5 8.6 8.4 7.9 8.0 6.7 6.1 6.0 6.2 6.9 6.8 6.1 6.3 6.6 6.5 6.7 6.4 5.2 4.8
6.5 6.5 6.5 6.5 6.5 6.5 6.5 6.5 6.5 6.5 6.5 6.5 6.5 6.5 6.5 7.0 7.2 7.1 7.2 7.4 7.5 7.7 8.0 8.2 8.3 8.4 8.2 8.1 8.6 6.3 5.8 5.1 5.2 5.2 5.3 5.4 5.6 6.2 6.2 5.7 4.8 3.7 3.8 4.3
6.5 6.5 6.5 6.5 6.5 6.5 6.5 6.5 6.5 6.5 6.5 6.5 6.5 6.5 6.5 6.5 6.5 7.0 7.3 7.6 7.6 7.8 8.0 8.1 8.1 8.1 7.6 5.7 6.2 5.7 4.9 4.7 4.9 5.3 5.8 5.9 6.1 6.1 5.6 5.7 5.2 4.7 4.3 4.5
6.5 6.5 6.5 6.5 6.5 6.5 6.5 6.5 6.5 6.5 6.5 6.5 6.5 6.5 6.5 6.7 7.2 7.6 7.9 7.8 7.8 7.9 8.0 7.8 6.8 5.7 5.4 5.4 5.0 5.0 5.0 4.8 5.0 5.5 5.9 6.5 6.9 6.4 6.2 6.0 5.2 4.0 4.5 4.7
6.5 6.5 6.5 6.5 6.5 6.5 6.5 6.5 6.5 6.5 6.5 6.5 6.5 6.5 6.8 7.3 7.6 7.4 8.0 8.2 8.2 8.2 8.2 7.7 6.4 5.5 5.2 4.8 4.8 4.8 4.7 5.0 5.4 5.7 6.4 6.9 7.4 7.5 7.5 7.0 6.6 6.5 7.1 7.0
6.5 6.5 6.5 6.5 6.5 6.5 6.5 6.5 7.0 6.5 6.5 6.5 6.6 6.5 6.5 7.2 6.5 6.5 8.0 8.1 8.1 8.3 8.1 7.2 5.8 5.4 4.9 5.1 5.6 5.4 5.7 5.8 5.9 6.9 7.7 8.4 8.4 8.3 8.1 8.3 8.0 8.0 8.2 7.8
6.5 6.5 6.5 6.5 6.5 6.5 6.5 6.6 7.2 6.5 6.5 6.8 7.0 7.0 7.1 6.5 6.9 7.6 8.1 8.0 8.3 7.8 6.6 6.6 7.2 5.9 5.9 6.9 6.9 5.9 6.6 6.9 8.5 9.3 9.3 9.1 9.0 8.4 7.7 7.5 6.0 5.3 5.1 5.3
6.5 6.5 6.5 6.5 6.5 6.5 6.9 6.7 6.5 6.6 7.0 7.2 7.3 7.4 7.2 7.5 7.7 7.8 7.9 7.8 7.5 7.0 6.9 7.4 6.8 7.5 8.5 8.6 7.5 7.0 7.0 9.0 9.1 8.6 7.2 6.9 6.8 6.9 7.9 8.5 8.7 8.9 9.0 8.3
6.5 6.5 6.5 6.5 6.5 6.6 7.3 6.9 7.4 7.5 7.2 7.3 7.4 7.7 7.8 7.7 7.8 7.9 7.9 8.1 8.3 8.5 8.7 8.9 7.8 7.1 8.0 7.8 6.6 6.8 8.7 8.5 7.8 7.8 7.4 7.2 7.1 7.4 7.5 7.8 8.1 9.1 9.3 8.9
6.5 6.7 6.5 6.5 6.5 6.5 7.1 7.6 7.6 7.7 7.6 7.7 7.9 8.0 8.0 7.6 7.9 8.0 8.1 8.3 8.4 8.7 8.8 8.8 7.5 6.3 5.9 6.7 7.1 6.9 7.5 8.1 7.6 6.9 6.7 6.8 6.4 7.1 7.1 8.1 7.5 8.5 7.7 7.4
6.5 6.5 6.5 6.5 6.5 6.8 7.3 7.6 7.7 7.7 7.4 7.4 8.1 8.0 8.0 7.8 7.9 8.0 8.1 8.3 8.6 8.7 8.8 8.8 8.2 7.1 7.3 7.3 6.6 7.1 7.5 7.6 6.7 6.4 6.2 6.1 6.0 6.5 7.1 7.0 5.9 5.8 6.2 4.4
6.7 6.5 6.5 6.5 6.6 6.7 6.8 7.5 7.9 7.6 7.2 7.4 7.8 8.0 8.2 7.9 7.6 8.2 8.3 8.5 8.6 8.6 8.8 8.6 7.8 7.3 7.1 6.3 6.1 6.2 6.3 6.7 6.7 6.2 5.7 4.5 5.5 5.9 6.8 7.4 9.0 2.8 3.1 3.5
Wind_Speed
9 10 11 12 7 2 3 4 5 1 4 5 6 4 10 12 12 12 12 13 13 14 13 14 15 16 17 17 17 18 17 15 11 9 9 9 9 8 7 10 12 14 13 14
6 12 6 4 5 8 8 6 4 4 2 5 6 8 6 14 14 13 13 13 14 14 15 15 16 16 16 17 17 17 17 17 13 10 9 8 9 8 8 10 12 15 14 16
13 4 5 7 7 9 8 8 4 3 2 4 5 8 11 12 13 12 13 13 15 15 16 16 17 18 18 18 18 17 17 16 15 15 10 8 7 5 7 8 8 14 17 16
11 3 7 7 7 9 10 9 3 4 5 4 4 4 7 10 15 15 15 16 16 17 17 17 19 20 20 20 18 18 17 17 16 17 13 15 11 10 8 8 9 11 16 16
9 10 10 9 8 9 5 8 4 4 3 4 6 6 7 5 12 17 19 19 19 18 18 19 19 19 19 18 19 17 18 18 17 17 16 13 15 10 9 9 12 11 13 16
10 2 5 6 3 8 8 7 4 3 2 6 4 6 5 7 8 6 12 19 21 21 21 21 20 19 18 18 18 18 19 19 18 18 19 18 17 13 10 12 11 10 8 8
16 13 6 5 7 6 13 10 9 7 6 7 3 5 9 4 4 7 6 8 17 21 20 20 21 20 19 21 20 18 20 21 20 19 19 19 18 14 16 13 10 10 10 7
15 15 13 10 12 9 17 16 8 6 6 4 4 6 3 0 2 7 9 9 9 12 18 22 23 21 20 21 21 20 20 21 20 20 20 17 16 11 11 12 8 6 6 6
16 17 5 5 4 7 7 11 3 3 1 4 5 5 10 5 3 3 3 3 5 7 12 16 17 19 18 18 20 21 21 20 20 21 17 17 15 16 13 13 11 8 11 10
9 12 7 7 5 4 7 11 6 5 6 7 6 5 4 4 1 1 3 3 2 2 3 7 9 12 13 16 16 17 18 19 18 17 15 14 15 15 11 10 12 11 11 13
13 11 7 7 11 13 5 6 3 3 3 6 5 5 2 5 4 4 2 3 5 4 1 2 5 6 8 10 12 14 15 16 15 15 14 14 13 9 9 11 12 13 14 14
20 11 12 12 3 7 9 12 13 7 8 1 3 7 5 8 6 5 6 3 3 5 2 1 3 6 7 9 9 10 11 12 12 10 10 10 10 11 12 12 11 11 12 9
14 12 12 14 7 4 9 11 11 4 0 9 6 5 4 4 7 7 7 5 5 4 1 4 5 5 7 6 6 6 6 6 6 5 7 9 9 9 9 9 8 9 11 11
19 15 19 13 15 12 12 13 14 14 9 11 11 14 7 10 11 11 6 4 5 3 3 3 6 5 5 5 5 5 4 3 3 5 6 7 7 7 8 8 9 11 12 12
13 19 16 18 17 18 19 16 18 18 16 15 14 15 11 11 12 5 0 2 4 4 5 5 6 7 8 8 7 6 6 5 4 4 4 4 3 3 4 5 6 6 8 8
7 10 12 16 16 13 16 18 19 19 20 14 16 15 12 12 6 7 3 7 8 9 9 10 10 11 10 9 9 8 8 7 5 5 5 4 4 3 3 4 5 7 9 9
7 8 7 14 7 7 6 17 17 18 17 16 16 16 13 9 11 9 7 9 12 12 12 11 11 10 10 10 10 10 9 8 8 8 6 6 5 6 6 6 7 8 8 8
6 8 5 5 5 7 9 2 17 19 18 16 15 13 11 9 3 5 7 11 13 12 11 11 10 10 10 11 11 11 11 11 11 10 9 8 8 8 8 9 9 10 9 10
10 7 4 5 9 11 4 6 8 12 16 17 19 16 7 7 10 7 7 10 11 11 10 10 10 10 10 11 11 12 13 12 12 12 11 11 10 10 10 9 9 8 7 6
6 6 7 4 8 9 10 13 11 5 13 13 11 14 13 14 9 7 13 12 12 11 10 11 11 11 12 11 11 13 13 13 13 12 12 12 11 10 9 8 6 3 2 1
5 4 11 10 6 7 4 8 11 9 13 1 8 9 15 15 5 20 17 13 12 11 12 11 11 12 12 11 12 14 14 14 13 12 11 10 9 9 7 7 6 4 2 2
9 10 5 7 6 10 12 10 11 12 2 4 7 11 15 10 15 18 17 16 14 14 13 13 12 12 12 12 13 14 14 11 11 10 10 9 8 5 4 4 3 3 3 3
5 6 4 9 7 3 20 14 16 6 5 5 9 11 15 16 17 19 18 17 15 15 13 13 13 14 12 12 12 13 11 10 10 9 9 8 7 6 6 5 5 3 4 4
8 4 4 2 11 10 11 14 6 10 7 6 8 15 19 20 20 19 17 16 15 15 14 14 15 14 13 11 11 11 10 9 9 9 8 7 7 5 5 4 4 4 4 5
6 10 10 10 9 3 10 15 15 10 6 7 11 16 20 21 20 19 18 17 16 15 14 13 13 13 13 12 11 10 9 8 9 8 6 6 5 4 4 4 5 4 7 6
7 7 7 7 10 8 13 7 14 14 14 13 17 18 18 19 21 20 17 16 16 16 15 14 14 14 13 12 11 9 8 7 7 7 5 4 4 4 4 4 2 10 6 6
Wind_Direction
207 237 224 216 210 300 282 247 247 66 116 246 227 213 182 184 206 194 200 199 196 192 185 187 192 188 190 195 196 198 198 202 202 198 192 190 196 193 199 193 191 188 186 186
217 237 224 190 194 223 238 217 179 170 16 251 223 243 193 191 207 209 203 202 211 204 192 193 194 196 201 194 199 201 202 202 204 201 203 204 206 198 207 197 195 195 191 192
243 122 164 197 185 203 223 200 154 297 157 226 235 229 205 207 208 214 219 214 211 206 202 199 203 204 203 208 204 207 206 205 205 209 199 194 188 198 199 203 190 204 197 193
236 177 229 210 213 225 208 205 172 163 209 234 229 231 197 192 209 215 220 218 218 214 210 208 206 209 210 210 210 213 212 211 205 207 202 201 206 207 206 206 205 198 197 194
204 193 195 215 219 204 235 162 242 273 225 250 182 255 115 200 214 217 215 214 217 216 214 217 214 210 208 206 208 210 214 214 208 206 213 209 219 216 198 196 206 203 196 197
229 166 222 224 184 216 142 160 158 195 194 237 204 254 194 185 226 220 217 216 214 215 216 219 216 212 212 205 205 206 211 211 213 211 213 220 223 216 197 198 196 195 192 194
204 210 194 204 220 194 200 220 226 229 196 243 161 229 257 218 226 265 268 249 218 219 218 218 217 214 213 206 205 205 207 211 210 212 218 220 222 212 211 197 195 185 198 195
208 204 205 185 234 236 211 216 226 241 226 212 179 233 232 134 314 274 275 268 263 228 219 220 219 217 214 212 205 207 209 214 210 212 217 215 217 208 211 202 185 192 200 187
204 221 141 198 199 231 179 220 250 203 49 263 245 236 267 245 231 231 263 247 251 251 241 231 228 218 217 212 209 211 211 211 213 212 216 214 214 215 210 205 190 191 191 196
192 217 194 142 171 167 261 143 181 216 213 226 192 252 249 258 224 285 286 311 342 236 229 228 229 223 216 217 211 213 215 215 215 211 214 219 213 215 204 207 201 196 198 200
203 223 155 170 204 208 173 194 222 267 257 241 246 252 198 249 252 287 297 303 306 321 339 156 195 198 202 203 205 209 214 213 214 214 213 216 219 197 200 200 208 215 214 203
207 214 222 213 107 288 269 233 207 223 198 229 281 266 269 261 278 265 245 237 295 299 344 84 136 160 169 182 192 199 210 210 213 215 214 217 198 211 210 218 221 215 215 185
176 211 214 217 202 196 222 208 223 209 239 233 245 257 157 216 258 242 253 246 242 289 256 143 137 160 153 156 167 181 194 208 210 190 207 212 213 216 217 211 212 195 187 183
178 202 216 222 225 214 210 216 215 219 231 250 239 282 255 260 261 265 238 259 233 222 191 157 143 142 130 135 154 163 164 177 177 194 198 203 212 216 220 208 205 206 200 195
200 217 215 228 240 244 236 237 217 224 237 256 268 251 261 284 276 276 213 220 170 155 136 128 128 120 116 113 115 113 112 129 148 153 161 149 179 201 214 215 215 206 201 178
189 211 210 222 233 237 240 241 246 233 245 258 261 264 263 263 238 247 201 162 142 127 116 107 104 100 91 91 94 102 104 102 108 97 87 93 122 142 146 140 146 155 158 154
179 203 197 233 216 230 254 238 235 233 234 239 245 249 262 241 234 225 185 162 142 131 121 108 97 89 85 83 86 89 91 92 90 91 93 97 104 108 122 135 141 136 128 120
184 191 191 221 179 222 243 242 225 230 239 232 258 263 265 269 150 175 169 155 139 130 121 113 104 94 86 84 84 87 85 84 84 83 84 88 94 102 107 111 115 121 128 135
219 186 179 176 217 256 204 195 188 202 240 235 244 255 221 167 143 146 146 142 129 122 113 104 100 97 92 87 87 88 84 84 82 80 80 81 87 91 97 102 113 120 137 147
183 239 230 173 220 236 249 211 203 219 254 246 244 259 195 171 205 181 157 141 130 123 118 114 105 98 92 90 93 93 91 88 84 84 86 87 90 93 95 101 100 110 112 103
170 185 206 213 233 242 210 164 160 206 257 97 237 238 191 196 235 134 141 137 132 126 122 117 110 105 105 109 107 98 95 90 93 92 85 79 73 69 66 69 63 75 105 184
198 174 180 206 215 244 147 142 205 230 225 213 208 201 196 146 129 138 141 141 139 134 132 124 116 109 106 106 104 99 96 100 99 97 95 92 93 96 104 98 75 47 18 342
248 233 213 209 215 191 183 209 220 231 217 195 197 177 167 153 151 151 148 146 144 139 136 132 123 113 105 104 107 108 107 106 103 99 94 89 82 70 56 47 30 12 2 350
208 191 242 239 228 222 203 219 226 207 199 191 194 173 165 159 157 153 149 147 147 146 142 134 128 118 111 107 105 107 109 110 109 100 91 84 68 64 50 46 27 16 10 355
228 162 213 244 252 255 238 231 220 201 196 187 174 171 173 157 160 155 153 154 152 146 142 138 128 124 120 116 109 107 111 113 106 101 92 85 72 58 59 56 29 23 54 19
191 196 193 229 236 218 260 248 206 199 194 184 168 166 167 165 159 158 156 153 151 147 141 135 130 126 124 119 113 106 99 108 119 110 95 66 72 56 40 27 81 112 77 26